Location: Newport
(44.6370°N, 124.0520°W)
Time: 09:48:50
(UTC-08:00)

Tiangong 2 - Pass Details

Date: 08 October 2017
Orbit: 386 x 390 km, 42.8° (Epoch: 14 December)

Event Time Altitude Azimuth Distance (km) Brightness Sun altitude
Exits shadow 05:54:59 10° 188° (S) 1,448 3.8 -16.5°
Reaches altitude 10° 05:55:06 10° 187° (S) 1,419 3.8 -16.4°
Maximum altitude 05:57:01 15° 150° (SSE) 1,165 3.8 -16.1°
Drops below altitude 10° 05:58:56 10° 113° (ESE) 1,425 4.9 -15.8°
Sets 06:01:38 0° 89° (E) 2,286 6.9 -15.3°
